Location: Aydie
(43.5695°N, 0.1043°W)
Time: 05:18:14
(UTC+00:00)

Okean 1 Rocket - Pass Details

Date: 17 November 2025
Orbit: 599 x 628 km, 82.5° (Epoch: 04 December)

Event Time Altitude Azimuth Distance (km) Brightness Sun altitude
Rises 17:43:54 0° 158° (SSE) 2,890 6.4 -12.8°
Reaches altitude 10° 17:46:24 10° 145° (SE) 1,984 5.4 -13.2°
Maximum altitude 17:50:03 26° 89° (E) 1,220 4.0 -13.9°
Enters shadow 17:51:41 21° 55° (NE) 1,405 4.3 -14.2°
